EW7114 Weather Reports


Display with metric or nautical units.
time (UTC)temp
F
wind
direction
speed
MPH
gust
MPH
rain 1hr
in
rain 24hr
in
rain mn
in
humidity
%
barometer
mb
20201129044553 13 247 0.0 0.0 0.00 0.00 0.00 79 1034.6
20201129043049 15 185 0.0 0.0 0.00 0.00 0.00 79 1034.6
20201129041647 13 128 0.0 0.0 0.00 0.00 0.00 76 1034.3
20201129040030 14 128 0.0 0.0 0.00 0.00 0.00 73 1034.0
20201129034530 19 127 0.0 0.0 0.00 0.00 0.00 71 1033.9
20201129033110 22 355 0.0 0.0 0.00 0.00 0.00 73 1033.9
20201129030019 21 72 0.0 0.0 0.00 0.00 0.00 75 1033.8
20201129024511 21 72 0.0 0.0 0.00 0.00 0.00 70 1033.7
20201129023011 24 282 0.0 0.0 0.00 0.00 0.00 68 1033.5
20201129021739 26 282 0.0 0.0 0.00 0.00 0.00 69 1033.4
20201129020259 26 282 0.0 0.0 0.00 0.00 0.00 68 1033.3
20201129014739 27 318 0.0 0.0 0.00 0.00 0.00 66 1033.0
20201129013116 29 315 0.0 1.0 0.00 0.00 0.00 64 1032.8
20201129011741 28 338 0.0 0.0 0.00 0.00 0.00 66 1032.8
20201129010117 27 308 0.0 2.0 0.00 0.00 0.00 65 1032.8
20201129004610 28 293 0.0 0.0 0.00 0.00 0.00 63 1032.6
20201129003129 30 314 0.0 1.0 0.00 0.00 0.00 60 1032.7
20201129001546 32 298 0.0 0.0 0.00 0.00 0.00 56 1032.5
20201129000031 35 331 0.0 5.0 0.00 0.00 0.00 54 1032.3
20201128234525 39 350 1.0 6.0 0.00 0.00 0.00 46 1032.0
20201128233024 42 350 0.0 0.0 0.00 0.00 0.00 42 1032.1
20201128231512 43 350 0.0 0.0 0.00 0.00 0.00 40 1032.1
20201128230020 43 350 0.0 0.0 0.00 0.00 0.00 40 1032.2
20201128224649 42 350 0.0 0.0 0.00 0.00 0.00 41 1032.2
20201128223243 42 350 0.0 0.0 0.00 0.00 0.00 41 1032.5
20201128221632 42 350 0.0 1.0 0.00 0.00 0.00 42 1032.7
20201128220128 42 350 0.0 0.0 0.00 0.00 0.00 42 1032.3
20201128214641 41 350 0.0 3.0 0.00 0.00 0.00 42 1032.3
20201128213115 41 350 0.0 0.0 0.00 0.00 0.00 42 1032.3
20201128211544 40 350 0.0 0.0 0.00 0.00 0.00 43 1032.6
20201128210118 40 350 0.0 0.0 0.00 0.00 0.00 44 1032.7
20201128204607 39 350 0.0 0.0 0.00 0.00 0.00 46 1033.1
20201128203027 38 350 0.0 0.0 0.00 0.00 0.00 47 1033.2
20201128201528 38 350 0.0 0.0 0.00 0.00 0.00 48 1033.3
20201128200033 37 350 0.0 0.0 0.00 0.00 0.00 51 1033.6
20201128194515 37 350 0.0 0.0 0.00 0.00 0.00 51 1033.9
20201128193024 35 350 0.0 1.0 0.00 0.00 0.00 53 1034.0
20201128191734 34 350 0.0 0.0 0.00 0.00 0.00 56 1034.3
20201128190214 34 350 0.0 0.0 0.00 0.00 0.00 56 1034.5
20201128184603 34 73 0.0 0.0 0.00 0.00 0.00 58 1034.9
20201128183126 32 94 0.0 0.0 0.00 0.00 0.00 61 1035.2
20201128181553 31 137 0.0 3.0 0.00 0.00 0.00 63 1035.6
20201128180100 29 133 0.0 0.0 0.00 0.00 0.00 66 1035.6
20201128174546 27 146 0.0 0.0 0.00 0.00 0.00 69 1035.8
20201128173033 25 146 0.0 0.0 0.00 0.00 0.00 71 1036.1
20201128171602 23 161 0.0 0.0 0.00 0.00 0.00 76 1036.2
20201128170053 20 161 0.0 0.0 0.00 0.00 0.00 80 1036.4
20201128164521 18 161 0.0 0.0 0.00 0.00 0.00 80 1036.3
20201128163018 15 161 0.0 0.0 0.00 0.00 0.00 81 1036.3
20201128161519 13 161 0.0 0.0 0.00 0.00 0.00 82 1036.3
20201128160137 10 161 0.0 0.0 0.00 0.00 0.00 83 1036.4
20201128160016 10 161 0.0 0.0 0.00 0.00 0.00 83 1036.3
20201128154745 8 161 0.0 0.0 0.00 0.00 0.00 83 1036.2
20201128153115 7 161 0.0 0.0 0.00 0.00 0.00 83 1036.0
20201128151644 5 161 0.0 0.0 0.00 0.00 0.00 85 1036.0
20201128150213 2 161 0.0 0.0 0.00 0.00 0.00 85 1035.8
20201128144715 0 161 0.0 0.0 0.00 0.00 0.00 83 1035.6
20201128143118 2 161 0.0 0.0 0.00 0.00 0.00 81 1035.4
20201128141704 3 161 0.0 0.0 0.00 0.00 0.00 85 1035.2
20201128140052 2 161 0.0 0.0 0.00 0.00 0.00 83 1035.4
20201128134542 2 161 0.0 0.0 0.00 0.00 0.00 83 1035.5
20201128133050 2 161 0.0 0.0 0.00 0.00 0.00 83 1035.4
20201128131546 1 161 0.0 0.0 0.00 0.00 0.00 83 1035.3
20201128130026 2 161 0.0 0.0 0.00 0.00 0.00 83 1035.2
20201128124514 2 161 0.0 0.0 0.00 0.00 0.00 83 1035.2
20201128123230 3 161 0.0 0.0 0.00 0.00 0.00 84 1035.0
20201128121718 4 161 0.0 0.0 0.00 0.00 0.00 84 1034.9
20201128120209 3 161 0.0 0.0 0.00 0.00 0.00 84 1034.9
20201128114726 3 161 0.0 0.0 0.00 0.00 0.00 84 1034.7
20201128113216 3 161 0.0 0.0 0.00 0.00 0.00 83 1034.7
20201128111605 3 161 0.0 0.0 0.00 0.00 0.00 84 1034.9
20201128110105 3 161 0.0 0.0 0.00 0.00 0.00 84 1034.8
20201128104548 2 161 0.0 0.0 0.00 0.00 0.00 82 1034.9
20201128103103 5 161 0.0 0.0 0.00 0.00 0.00 82 1034.9
20201128101543 6 161 0.0 0.0 0.00 0.00 0.00 84 1034.9
20201128100044 6 159 0.0 0.0 0.00 0.00 0.00 84 1035.2
20201128094609 5 159 0.0 0.0 0.00 0.00 0.00 83 1035.3
20201128093056 6 159 0.0 0.0 0.00 0.00 0.00 82 1035.3
20201128091559 6 146 0.0 4.0 0.00 0.00 0.00 84 1035.1
20201128090025 5 137 0.0 0.0 0.00 0.00 0.00 84 1034.8
20201128084527 4 137 0.0 0.0 0.00 0.00 0.00 83 1034.7
20201128083025 4 137 0.0 0.0 0.00 0.00 0.00 83 1034.9
20201128081514 5 137 0.0 0.0 0.00 0.00 0.00 82 1034.9
20201128080020 6 137 0.0 0.0 0.00 0.00 0.00 83 1034.9
20201128074514 9 137 0.0 0.0 0.00 0.00 0.00 84 1035.0
20201128073056 9 137 0.0 0.0 0.00 0.00 0.00 85 1035.0
20201128071536 8 137 0.0 0.0 0.00 0.00 0.00 83 1035.0
20201128070022 7 137 0.0 0.0 0.00 0.00 0.00 83 1035.1
20201128064510 7 137 0.0 0.0 0.00 0.00 0.00 83 1034.8
20201128063236 7 137 0.0 0.0 0.00 0.00 0.00 80 1034.7
20201128061717 11 137 0.0 0.0 0.00 0.00 0.00 84 1034.6
20201128060149 9 137 0.0 0.0 0.00 0.00 0.00 82 1034.5
20201128054748 11 137 0.0 0.0 0.00 0.00 0.00 81 1034.5
20201128053153 12 137 0.0 0.0 0.00 0.00 0.00 82 1034.7
20201128051640 12 137 0.0 0.0 0.00 0.00 0.00 82 1034.6
20201128050152 12 137 0.0 0.0 0.00 0.00 0.00 81 1034.5